Regional Weather Roundup
Issued by NWS Goodland, KS

Home | Current Version | Previous Version | Text Only | Print | Product List | Glossary Off
Versions: 1 2 3 4 5 6 7 8 9 10 11 12 13 14 15 16 17 18 19 20 21 22 23 24 25 26 27 28 29 30 31 32 33 34 35 36 37 38 39 40 41 42 43 44 45 46 47 48 49 50

000
ASUS43 KGLD 280408
RWRGLD

GOODLAND FORECAST AREA HOURLY WEATHER ROUNDUP
NATIONAL WEATHER SERVICE GOODLAND KS
1000 PM MDT SAT MAY 27 2017

...OFFICIAL OBSERVATIONS...

CITY           SKY/WX    TMP DP  RH WIND       PRES   REMARKS
GOODLAND KS    CLEAR     52  50  93 W9        30.13R
HILL CITY KS   MOCLDY    61  55  81 NW6       30.06R
IMPERIAL NEB   CLEAR     54  47  77 W6        30.12R
MCCOOK NEB     PTCLDY    54  51  90 NW8       30.08R
AKRON CO       CLEAR     48  38  68 NW5       30.19R
BURLINGTON CO  CLEAR     51  48  89 NW8       30.16R
LIMON CO       CLOUDY    46  43  89 NW9       30.25R
$$

...UNOFFICIAL OBSERVATIONS...

CITY           SKY/WX    TMP DP  RH WIND       PRES   REMARKS
LENORA KS        N/A     59  32  36 MISG        N/A
NORTON KS      CLEAR     55  48  76 NW8       30.06S
SHARON SPRINGS   N/A     51  48  91 CALM        N/A
TRENTON NEB      N/A     53  32  45 CALM        N/A
$$




USA.gov is the U.S. government's official web portal to all federal, state and local government web resources and services.